Estación de Coihueco
Ultimos registro cada 15 minutos 20
| N° | Estación | Fecha / Hora | Temperatura | Humedad | Lluvia | Velocidad | Dirección | Radiación | Presion |
| 20 | Coihueco | 05-09-2026 04:45 | -1,1 | 100 | 0 | 0 | 241 | 0,6 | 995,8 |
| 19 | Coihueco | 05-09-2026 04:30 | -1,3 | 99,6 | 0 | 0 | 241 | 0,6 | 995,9 |
| 18 | Coihueco | 05-09-2026 04:15 | -1 | 99,7 | 0 | 0 | 241 | 0,6 | 995,9 |
| 17 | Coihueco | 05-09-2026 04:00 | -0,3 | 99,9 | 0 | 0 | 241 | 0,6 | 996 |
| 16 | Coihueco | 05-09-2026 03:45 | -0,4 | 99,7 | 0 | 0 | 241 | 0,6 | 996,2 |
| 15 | Coihueco | 05-09-2026 03:30 | -0,4 | 99,4 | 0 | 0 | 241 | 0,6 | 996,4 |
| 14 | Coihueco | 05-09-2026 03:15 | -0,1 | 99,7 | 0 | 0 | 241 | 0,6 | 996,6 |
| 13 | Coihueco | 05-09-2026 03:00 | 0,2 | 98,9 | 0 | 0 | 241 | 0,6 | 996,7 |
| 12 | Coihueco | 05-09-2026 02:45 | 0,4 | 98,9 | 0 | 0 | 241 | 0,6 | 997 |
| 11 | Coihueco | 05-09-2026 02:30 | 0,1 | 96,8 | 0 | 0 | 241 | 0,6 | 997,3 |
| 10 | Coihueco | 05-09-2026 02:15 | 0,8 | 98,2 | 0 | 0 | 241 | 0,6 | 997,3 |
| 9 | Coihueco | 05-09-2026 02:00 | 1 | 97,5 | 0 | 0 | 241 | 0,6 | 997,4 |
| 8 | Coihueco | 05-09-2026 01:45 | 1,5 | 96,9 | 0 | 0 | 241 | 0,6 | 997,6 |
| 7 | Coihueco | 05-09-2026 01:30 | 2,4 | 96,7 | 0 | 0 | 241 | 0,6 | 997,6 |
| 6 | Coihueco | 05-09-2026 01:15 | 1,9 | 95,5 | 0 | 0 | 241 | 0,6 | 997,8 |
| 5 | Coihueco | 05-09-2026 01:00 | 2,9 | 94,1 | 0 | 0 | 244 | 0,6 | 997,7 |
| 4 | Coihueco | 05-09-2026 00:45 | 3,3 | 92,4 | 0 | 0 | 246 | 0,6 | 997,8 |
| 3 | Coihueco | 05-09-2026 00:30 | 3,9 | 92 | 0 | 0 | 246 | 0,6 | 997,8 |
| 2 | Coihueco | 05-09-2026 00:15 | 4 | 92,8 | 0 | 0 | 246 | 0,6 | 998,1 |
| 1 | Coihueco | 05-09-2026 00:00 | 3,6 | 91,7 | 0 | 0,5 | 246 | 0,6 | 998,2 |